GW3520 Weather Reports


time (UTC)temp
C
wind
direction
speed
KPH
gust
KPH
rain 1hr
cm
rain 24hr
cm
rain mn
cm
humidity
%
barometer
mb
20260906212550 35 141 1.6 3.2 0.00 0.00 0.00 31 1017.5
20260906212046 33 185 0.0 9.7 0.00 0.00 0.00 33 1017.6
20260906211545 33 204 0.0 1.6 0.00 0.00 0.00 34 1017.2
20260906211040 33 187 0.0 9.7 0.00 0.00 0.00 33 1017.3
20260906210536 34 210 1.6 3.2 0.00 0.00 0.00 35 1017.7
20260906210036 33 211 0.0 1.6 0.00 0.00 0.00 35 1017.5
20260906205531 33 191 0.0 3.2 0.00 0.00 0.00 35 1017.5
20260906205027 32 186 3.2 4.8 0.00 0.00 0.00 33 1017.6
20260906204527 33 191 3.2 6.4 0.00 0.00 0.00 37 1017.7
20260906204027 32 94 0.0 3.2 0.00 0.00 0.00 36 1017.8
20260906203526 32 179 1.6 3.2 0.00 0.00 0.00 36 1017.7
20260906203021 31 184 0.0 4.8 0.00 0.00 0.00 36 1017.9
20260906202518 31 99 6.4 9.7 0.00 0.00 0.00 37 1018.0
20260906202013 32 205 4.8 9.7 0.00 0.00 0.00 38 1017.9
20260906201507 32 216 0.0 3.2 0.00 0.00 0.00 40 1018.0
20260906201007 32 181 1.6 4.8 0.00 0.00 0.00 39 1018.3
20260906200503 31 209 1.6 6.4 0.00 0.00 0.00 39 1018.1
20260906195958 31 112 3.2 6.4 0.00 0.00 0.00 39 1018.4
20260906195454 31 91 0.0 4.8 0.00 0.00 0.00 39 1018.5
20260906194950 31 180 0.0 4.8 0.00 0.00 0.00 40 1018.6
20260906194445 32 147 4.8 6.4 0.00 0.00 0.00 40 1018.3
20260906193941 31 177 0.0 1.6 0.00 0.00 0.00 40 1018.4
20260906193436 31 199 1.6 4.8 0.00 0.00 0.00 42 1018.5
20260906192931 31 190 1.6 3.2 0.00 0.00 0.00 42 1018.4
20260906192431 31 207 1.6 3.2 0.00 0.00 0.00 39 1018.5
20260906191931 31 148 1.6 4.8 0.00 0.00 0.00 41 1018.6
20260906191426 31 184 1.6 3.2 0.00 0.00 0.00 42 1018.5
20260906190925 31 192 1.6 4.8 0.00 0.00 0.00 44 1018.8
20260906190424 30 202 3.2 4.8 0.00 0.00 0.00 42 1019.0
20260906185919 30 212 0.0 3.2 0.00 0.00 0.00 43 1019.1
20260906185418 29 100 3.2 3.2 0.00 0.00 0.00 43 1019.4
20260906184917 29 166 3.2 4.8 0.00 0.00 0.00 43 1019.4
20260906184413 30 126 1.6 11.3 0.00 0.00 0.00 42 1019.4
20260906183908 30 191 1.6 3.2 0.00 0.00 0.00 42 1019.4
20260906183404 30 221 1.6 4.8 0.00 0.00 0.00 41 1019.6
20260906182859 30 200 0.0 4.8 0.00 0.00 0.00 44 1019.9
20260906182354 30 184 1.6 3.2 0.00 0.00 0.00 45 1020.0
20260906181850 28 139 0.0 1.6 0.00 0.00 0.00 48 1019.8
20260906181346 27 210 0.0 3.2 0.00 0.00 0.00 50 1020.1
20260906180842 27 204 0.0 4.8 0.00 0.00 0.00 50 1020.3
20260906180336 27 211 0.0 3.2 0.00 0.00 0.00 52 1020.2
20260906175833 27 218 0.0 3.2 0.00 0.00 0.00 50 1020.5
20260906175328 27 179 1.6 6.4 0.00 0.00 0.00 53 1020.6
20260906174828 28 77 3.2 6.4 0.00 0.00 0.00 48 1020.7
20260906174321 28 170 0.0 3.2 0.00 0.00 0.00 47 1020.6
20260906173816 28 128 0.0 9.7 0.00 0.00 0.00 49 1020.8
20260906173312 27 212 3.2 3.2 0.00 0.00 0.00 52 1020.9
20260906172811 27 192 1.6 1.6 0.00 0.00 0.00 52 1020.8
20260906172307 27 213 4.8 9.7 0.00 0.00 0.00 53 1020.9
20260906171802 26 216 0.0 3.2 0.00 0.00 0.00 53 1021.3
20260906171257 26 225 0.0 1.6 0.00 0.00 0.00 54 1021.3
20260906170753 26 210 3.2 4.8 0.00 0.00 0.00 55 1021.4
20260906170248 26 186 1.6 6.4 0.00 0.00 0.00 53 1021.5
20260906165744 26 211 4.8 9.7 0.00 0.00 0.00 56 1021.3
20260906165243 26 111 1.6 6.4 0.00 0.00 0.00 52 1021.5
20260906164738 26 114 0.0 3.2 0.00 0.00 0.00 53 1021.3
20260906164233 26 104 1.6 4.8 0.00 0.00 0.00 53 1021.0
20260906163729 27 194 1.6 3.2 0.00 0.00 0.00 53 1021.3
20260906163225 26 204 0.0 1.6 0.00 0.00 0.00 53 1021.0
20260906162721 26 177 0.0 1.6 0.00 0.00 0.00 53 1021.3
20260906162216 26 148 0.0 3.2 0.00 0.00 0.00 55 1021.3
20260906161711 25 102 1.6 3.2 0.00 0.00 0.00 55 1021.1
20260906161210 26 200 0.0 3.2 0.00 0.00 0.00 55 1021.1
20260906160709 25 179 1.6 3.2 0.00 0.00 0.00 55 1021.6
20260906160208 25 116 1.6 4.8 0.00 0.00 0.00 57 1021.3
20260906155706 25 170 1.6 3.2 0.00 0.00 0.00 57 1021.4
20260906155202 25 194 0.0 1.6 0.00 0.00 0.00 59 1021.5
20260906154657 25 176 1.6 3.2 0.00 0.00 0.00 57 1021.3
20260906154157 24 111 4.8 6.4 0.00 0.00 0.00 58 1021.6
20260906153655 24 126 1.6 3.2 0.00 0.00 0.00 58 1021.5
20260906153150 24 213 0.0 0.0 0.00 0.00 0.00 59 1021.6
20260906152645 25 171 0.0 3.2 0.00 0.00 0.00 57 1021.6
20260906152139 24 179 0.0 0.0 0.00 0.00 0.00 60 1021.5
20260906151634 23 183 0.0 1.6 0.00 0.00 0.00 60 1022.0
20260906151130 23 197 0.0 1.6 0.00 0.00 0.00 62 1021.7
20260906150625 22 174 0.0 1.6 0.00 0.00 0.00 64 1021.7
20260906150120 21 205 0.0 3.2 0.00 0.00 0.00 69 1021.5
20260906145619 21 332 3.2 4.8 0.00 0.00 0.00 68 1021.6
20260906145114 21 199 0.0 0.0 0.00 0.00 0.00 69 1021.8
20260906144608 20 194 0.0 3.2 0.00 0.00 0.00 73 1021.7
20260906144103 19 221 0.0 0.0 0.00 0.00 0.00 76 1021.8
20260906143558 19 214 0.0 0.0 0.00 0.00 0.00 78 1021.8
20260906143055 19 210 0.0 0.0 0.00 0.00 0.00 77 1021.5
20260906142553 19 268 0.0 0.0 0.00 0.00 0.00 76 1021.4
20260906142049 20 212 0.0 1.6 0.00 0.00 0.00 76 1021.5
20260906141548 20 276 3.2 3.2 0.00 0.00 0.00 75 1021.6
20260906141044 19 205 1.6 3.2 0.00 0.00 0.00 78 1021.8
20260906140543 18 218 0.0 0.0 0.00 0.00 0.00 80 1021.6
20260906140037 17 215 0.0 0.0 0.00 0.00 0.00 83 1021.6
20260906135534 17 212 0.0 0.0 0.00 0.00 0.00 85 1021.3
20260906135031 16 220 0.0 0.0 0.00 0.00 0.00 87 1021.6
20260906134525 16 227 0.0 0.0 0.00 0.00 0.00 90 1021.5
20260906134020 15 213 0.0 0.0 0.00 0.00 0.00 91 1021.8
20260906133516 15 198 0.0 0.0 0.00 0.00 0.00 91 1021.5
20260906133011 15 197 0.0 0.0 0.00 0.00 0.00 91 1021.4
20260906132507 15 197 0.0 0.0 0.00 0.00 0.00 91 1021.5
20260906132001 15 197 0.0 0.0 0.00 0.00 0.00 92 1021.1
20260906131457 15 197 0.0 0.0 0.00 0.00 0.00 92 1021.4
20260906130952 15 203 0.0 0.0 0.00 0.00 0.00 93 1021.4
20260906130451 14 197 0.0 0.0 0.00 0.00 0.00 93 1021.1
20260906125946 14 213 0.0 0.0 0.00 0.00 0.00 93 1021.4
20260906125444 13 197 0.0 0.0 0.00 0.00 0.00 93 1021.4
20260906124943 13 211 0.0 0.0 0.00 0.00 0.00 92 1021.4
20260906124439 13 218 0.0 0.0 0.00 0.00 0.00 92 1021.1
20260906123939 13 204 0.0 0.0 0.00 0.00 0.00 92 1021.5
20260906123439 13 212 0.0 0.0 0.00 0.00 0.00 92 1021.3
20260906122933 14 218 0.0 0.0 0.00 0.00 0.00 92 1021.5
20260906122428 14 195 0.0 0.0 0.00 0.00 0.00 92 1021.5
20260906121925 14 190 0.0 0.0 0.00 0.00 0.00 91 1021.4
20260906121421 13 217 0.0 0.0 0.00 0.00 0.00 90 1021.5
20260906120917 14 224 0.0 0.0 0.00 0.00 0.00 90 1021.3
20260906120412 15 247 0.0 0.0 0.00 0.00 0.00 90 1021.0
20260906115908 15 211 0.0 0.0 0.00 0.00 0.00 90 1021.1
20260906115404 15 216 0.0 0.0 0.00 0.00 0.00 91 1021.5
20260906114903 15 205 0.0 0.0 0.00 0.00 0.00 90 1021.1
20260906114358 15 205 0.0 0.0 0.00 0.00 0.00 90 1021.1
20260906113854 15 205 0.0 0.0 0.00 0.00 0.00 90 1021.3
20260906113352 15 213 0.0 0.0 0.00 0.00 0.00 90 1021.0
20260906112848 15 204 0.0 0.0 0.00 0.00 0.00 90 1021.0
20260906112343 15 213 0.0 0.0 0.00 0.00 0.00 89 1021.1
20260906111838 15 213 0.0 0.0 0.00 0.00 0.00 89 1021.3
20260906111338 15 251 0.0 0.0 0.00 0.00 0.00 89 1021.0
20260906110833 15 239 0.0 0.0 0.00 0.00 0.00 89 1021.3
20260906110329 15 237 0.0 0.0 0.00 0.00 0.00 89 1021.1
20260906105827 15 182 0.0 0.0 0.00 0.00 0.00 87 1020.9
20260906105323 16 183 0.0 0.0 0.00 0.00 0.00 87 1020.8
20260906104819 16 182 0.0 0.0 0.00 0.00 0.00 88 1020.9
20260906104318 16 196 0.0 0.0 0.00 0.00 0.00 87 1020.9
20260906103816 16 196 0.0 0.0 0.00 0.00 0.00 87 1021.0
20260906103315 16 198 0.0 0.0 0.00 0.00 0.00 87 1020.9
20260906102811 16 198 0.0 0.0 0.00 0.00 0.00 87 1021.1
20260906102310 16 198 0.0 0.0 0.00 0.00 0.00 87 1021.0
20260906101805 16 198 0.0 0.0 0.00 0.00 0.00 86 1021.1
20260906101300 16 198 0.0 0.0 0.00 0.00 0.00 84 1021.1
20260906100756 16 190 0.0 0.0 0.00 0.00 0.00 83 1020.9
20260906100255 16 190 0.0 0.0 0.00 0.00 0.00 81 1021.3
20260906095750 17 190 0.0 0.0 0.00 0.00 0.00 80 1021.3
20260906095245 17 190 0.0 0.0 0.00 0.00 0.00 80 1021.1
20260906094744 17 195 0.0 0.0 0.00 0.00 0.00 80 1021.0
20260906094240 17 196 0.0 0.0 0.00 0.00 0.00 79 1020.8
20260906093736 17 196 0.0 0.0 0.00 0.00 0.00 79 1020.8
20260906093231 17 196 0.0 0.0 0.00 0.00 0.00 78 1020.7
20260906092727 18 196 0.0 0.0 0.00 0.00 0.00 78 1020.5
20260906092226 18 196 0.0 0.0 0.00 0.00 0.00 77 1020.3
20260906091722 18 196 0.0 0.0 0.00 0.00 0.00 77 1020.5
20260906091218 18 196 0.0 0.0 0.00 0.00 0.00 76 1020.3
20260906090715 18 196 0.0 0.0 0.00 0.00 0.00 75 1020.5
20260906090214 18 196 0.0 0.0 0.00 0.00 0.00 75 1020.5
20260906085713 18 175 0.0 0.0 0.00 0.00 0.00 74 1020.3
20260906085212 18 213 0.0 0.0 0.00 0.00 0.00 74 1020.3
20260906084706 18 187 0.0 0.0 0.00 0.00 0.00 74 1020.2
20260906084201 18 204 0.0 0.0 0.00 0.00 0.00 75 1020.1
20260906083656 18 192 0.0 0.0 0.00 0.00 0.00 75 1020.1
20260906083151 18 200 0.0 0.0 0.00 0.00 0.00 75 1020.1
20260906082646 18 197 0.0 0.0 0.00 0.00 0.00 74 1020.6
20260906082142 18 210 0.0 0.0 0.00 0.00 0.00 73 1020.6
20260906081637 18 211 0.0 0.0 0.00 0.00 0.00 73 1020.6
20260906081132 18 286 0.0 1.6 0.00 0.00 0.00 73 1020.6
20260906080628 18 189 0.0 1.6 0.00 0.00 0.00 71 1020.7
20260906080124 18 176 0.0 0.0 0.00 0.00 0.00 71 1020.5
20260906075619 18 200 0.0 0.0 0.00 0.00 0.00 69 1020.3
20260906075113 18 182 0.0 3.2 0.00 0.00 0.00 69 1020.7
20260906074609 18 329 1.6 4.8 0.00 0.00 0.00 69 1020.5
20260906074107 18 341 3.2 6.4 0.00 0.00 0.00 70 1020.5
20260906073602 18 229 0.0 3.2 0.00 0.00 0.00 71 1020.6
20260906073058 18 194 0.0 1.6 0.00 0.00 0.00 70 1020.3
20260906072553 18 205 0.0 1.6 0.00 0.00 0.00 70 1020.6
20260906072049 18 316 0.0 3.2 0.00 0.00 0.00 70 1020.6
20260906071545 18 349 3.2 6.4 0.00 0.00 0.00 71 1020.5
20260906071040 18 219 1.6 3.2 0.00 0.00 0.00 72 1020.5
20260906070536 18 225 0.0 0.0 0.00 0.00 0.00 70 1020.9
20260906070032 18 186 0.0 0.0 0.00 0.00 0.00 69 1020.9
20260906065531 18 210 1.6 3.2 0.00 0.00 0.00 68 1020.8
20260906065027 18 208 0.0 1.6 0.00 0.00 0.00 70 1020.8
20260906064522 18 339 3.2 3.2 0.00 0.00 0.00 69 1020.6
20260906064017 18 250 1.6 3.2 0.00 0.00 0.00 66 1020.7
20260906063512 19 210 0.0 0.0 0.00 0.00 0.00 63 1020.7
20260906063002 20 221 0.0 0.0 0.00 0.00 0.00 61 1020.9
20260906062457 20 197 0.0 1.6 0.00 0.00 0.00 62 1020.8
20260906061952 20 186 0.0 0.0 0.00 0.00 0.00 64 1020.8
20260906061447 19 248 0.0 0.0 0.00 0.00 0.00 63 1020.3
20260906060942 19 196 0.0 3.2 0.00 0.00 0.00 65 1020.6
20260906060439 18 264 1.6 3.2 0.00 0.00 0.00 66 1020.5
20260906055935 19 187 0.0 0.0 0.00 0.00 0.00 64 1020.3
20260906055431 19 174 0.0 0.0 0.00 0.00 0.00 63 1020.3
20260906054926 19 255 1.6 3.2 0.00 0.00 0.00 61 1020.3
20260906054421 18 191 0.0 0.0 0.00 0.00 0.00 63 1020.3
20260906053917 19 191 0.0 0.0 0.00 0.00 0.00 63 1020.2
20260906053412 19 191 0.0 0.0 0.00 0.00 0.00 61 1020.3
20260906052908 20 196 0.0 0.0 0.00 0.00 0.00 60 1020.2
20260906052404 20 194 0.0 0.0 0.00 0.00 0.00 59 1020.3
20260906051901 20 216 0.0 1.6 0.00 0.00 0.00 58 1020.1
20260906051401 20 145 3.2 3.2 0.00 0.00 0.00 57 1020.2
20260906050856 20 172 1.6 1.6 0.00 0.00 0.00 55 1020.0
20260906050350 21 201 0.0 3.2 0.00 0.00 0.00 53 1019.9
20260906045849 20 189 3.2 3.2 0.00 0.00 0.00 52 1019.9
20260906045344 20 204 1.6 1.6 0.00 0.00 0.00 53 1019.8
20260906044840 19 202 0.0 0.0 0.00 0.00 0.00 51 1019.9
20260906044340 20 201 0.0 0.0 0.00 0.00 0.00 49 1019.9
20260906043836 20 202 0.0 0.0 0.00 0.00 0.00 48 1019.5
20260906043332 20 201 0.0 1.6 0.00 0.00 0.00 47 1019.4
20260906042827 21 184 1.6 1.6 0.00 0.00 0.00 45 1019.4
20260906042325 20 309 1.6 4.8 0.00 0.00 0.00 45 1019.3
20260906041821 20 192 0.0 0.0 0.00 0.00 0.00 48 1019.3
20260906041317 20 217 0.0 0.0 0.00 0.00 0.00 50 1019.5
20260906040812 21 165 0.0 1.6 0.00 0.00 0.00 48 1019.5
20260906040307 21 186 0.0 1.6 0.00 0.00 0.00 46 1019.3
20260906035802 21 196 0.0 1.6 0.00 0.00 0.00 46 1019.2
20260906035258 22 336 3.2 6.4 0.00 0.00 0.00 44 1019.1
20260906034757 23 348 3.2 11.3 0.00 0.00 0.00 42 1019.3
20260906034252 22 345 8.0 14.5 0.00 0.00 0.00 43 1018.8
20260906033748 22 326 3.2 6.4 0.00 0.00 0.00 45 1019.1
20260906033247 22 0 11.3 12.9 0.00 0.00 0.00 43 1019.1
20260906032744 22 332 3.2 4.8 0.00 0.00 0.00 46 1019.2
20260906032244 22 347 4.8 4.8 0.00 0.00 0.00 46 1019.0
20260906031739 22 281 1.6 3.2 0.00 0.00 0.00 45 1019.0
20260906031235 22 193 0.0 3.2 0.00 0.00 0.00 45 1019.0
20260906030735 22 278 1.6 4.8 0.00 0.00 0.00 47 1018.8
20260906030230 22 338 4.8 4.8 0.00 0.00 0.00 45 1018.8
20260906025729 21 195 0.0 0.0 0.00 0.00 0.00 45 1019.2
20260906025229 22 176 0.0 1.6 0.00 0.00 0.00 44 1018.8
20260906024728 22 195 0.0 0.0 0.00 0.00 0.00 44 1018.8
20260906024227 22 210 0.0 1.6 0.00 0.00 0.00 44 1018.7
20260906023723 22 199 0.0 1.6 0.00 0.00 0.00 43 1018.7
20260906023218 23 196 0.0 1.6 0.00 0.00 0.00 42 1018.8
20260906022714 23 218 0.0 4.8 0.00 0.00 0.00 42 1018.5
20260906022209 23 324 3.2 4.8 0.00 0.00 0.00 41 1018.5
20260906021705 22 335 3.2 4.8 0.00 0.00 0.00 43 1018.6
20260906021203 22 204 1.6 3.2 0.00 0.00 0.00 45 1018.7
20260906020659 23 196 0.0 0.0 0.00 0.00 0.00 42 1018.5
20260906020153 24 206 0.0 1.6 0.00 0.00 0.00 41 1018.1
20260906015647 25 210 0.0 0.0 0.00 0.00 0.00 41 1018.1
20260906015146 25 271 1.6 3.2 0.00 0.00 0.00 39 1018.1
20260906014641 25 329 3.2 6.4 0.00 0.00 0.00 39 1018.1
20260906014137 26 339 4.8 6.4 0.00 0.00 0.00 37 1018.0
20260906013633 26 352 3.2 9.7 0.00 0.00 0.00 37 1017.9
20260906013128 26 287 4.8 6.4 0.00 0.00 0.00 38 1018.0
20260906012627 26 311 4.8 11.3 0.00 0.00 0.00 36 1017.8
20260906012122 25 357 6.4 11.3 0.00 0.00 0.00 38 1018.3
20260906011619 26 348 9.7 11.3 0.00 0.00 0.00 38 1018.3
20260906011118 26 332 8.0 11.3 0.00 0.00 0.00 37 1018.0
20260906010614 26 335 6.4 12.9 0.00 0.00 0.00 36 1017.9
20260906010110 26 308 8.0 11.3 0.00 0.00 0.00 37 1017.9
20260906005604 26 346 9.7 14.5 0.00 0.00 0.00 35 1018.4
20260906005103 27 0 11.3 16.1 0.00 0.00 0.00 34 1018.0
20260906004602 27 354 9.7 14.5 0.00 0.00 0.00 34 1018.0
20260906004057 27 2 12.9 16.1 0.00 0.00 0.00 32 1018.3
20260906003552 28 355 8.0 12.9 0.00 0.00 0.00 34 1018.0
20260906003048 28 332 9.7 16.1 0.00 0.00 0.00 31 1017.9
20260906002543 28 341 6.4 14.5 0.00 0.00 0.00 31 1018.0
20260906002038 30 350 11.3 16.1 0.00 0.00 0.00 29 1018.0
20260906001533 31 4 11.3 14.5 0.00 0.00 0.00 27 1017.9
20260906001027 31 323 4.8 6.4 0.00 0.00 0.00 27 1017.8
20260906000524 31 322 3.2 4.8 0.00 0.00 0.00 29 1017.8
20260906000024 31 185 0.0 1.6 0.00 0.00 0.00 29 1017.8
20260905235517 31 191 0.0 0.0 0.00 0.00 0.00 29 1017.9
20260905235013 32 235 1.6 1.6 0.00 0.00 0.00 32 1017.8
20260905234508 32 186 0.0 0.0 0.00 0.00 0.00 26 1017.8
20260905234003 32 201 0.0 0.0 0.00 0.00 0.00 27 1017.7
20260905233458 32 201 0.0 0.0 0.00 0.00 0.00 26 1017.6
20260905232956 32 201 0.0 0.0 0.00 0.00 0.00 24 1017.7
20260905232453 33 189 0.0 0.0 0.00 0.00 0.00 30 1017.5
20260905231949 33 189 0.0 0.0 0.00 0.00 0.00 24 1017.5
20260905231444 33 138 0.0 1.6 0.00 0.00 0.00 23 1017.5
20260905230940 33 192 0.0 1.6 0.00 0.00 0.00 23 1017.5
20260905230439 33 146 0.0 3.2 0.00 0.00 0.00 23 1017.5
20260905225937 33 123 0.0 3.2 0.00 0.00 0.00 24 1017.1
20260905225432 33 157 1.6 4.8 0.00 0.00 0.00 24 1017.1
20260905224927 33 147 3.2 6.4 0.00 0.00 0.00 24 1017.2
20260905224423 34 140 0.0 4.8 0.00 0.00 0.00 23 1017.1
20260905223922 35 177 1.6 3.2 0.00 0.00 0.00 22 1017.1
20260905223420 36 157 3.2 4.8 0.00 0.00 0.00 22 1017.1
20260905222915 37 258 1.6 3.2 0.00 0.00 0.00 19 1017.1
20260905222414 36 220 1.6 4.8 0.00 0.00 0.00 20 1017.1
20260905221910 36 191 1.6 4.8 0.00 0.00 0.00 20 1017.1
20260905221407 36 206 1.6 3.2 0.00 0.00 0.00 22 1017.2
20260905220902 36 151 1.6 3.2 0.00 0.00 0.00 20 1017.3
20260905220358 35 202 3.2 3.2 0.00 0.00 0.00 21 1017.3
20260905215857 35 128 0.0 4.8 0.00 0.00 0.00 20 1017.5
20260905215353 36 170 1.6 9.7 0.00 0.00 0.00 20 1017.3
20260905214849 36 111 4.8 4.8 0.00 0.00 0.00 20 1017.3
20260905214344 36 156 3.2 9.7 0.00 0.00 0.00 20 1017.7
20260905213839 36 185 0.0 3.2 0.00 0.00 0.00 20 1017.8
20260905213336 37 85 3.2 4.8 0.00 0.00 0.00 19 1017.8
20260905212835 37 59 6.4 6.4 0.00 0.00 0.00 19 1017.9